Weather History for Waskish, MN

Change the Weather History Date:

Thursday, October 18, 2012

  Actual Average (KBDE) Record (KBDE)
Temperature  
Mean Temperature 48 °F -  
Max Temperature 53 °F 51 °F 75 °F (1945)
Min Temperature 44 °F 32 °F 16 °F (1992)
Degree Days  
Heating Degree Days 16    
Moisture  
Dew Point 49 °F    
Average Humidity 97    
Maximum Humidity 100    
Minimum Humidity 93    
Precipitation  
Precipitation 0.41 in - - ()
Sea Level Pressure  
Sea Level Pressure 29.25 in    
Wind  
Wind Speed 6 mph (North)    
Max Wind Speed 14 mph    
Max Gust Speed 22 mph    
Visibility 8 miles    
Events Rain    
Averages and records for this station are not official NWS values.
T = Trace of Precipitation, MM = Missing Value Source: NWS Daily Summary

Daily Weather History Graph

Daily Weather History Graph

Search for Another Location

Airport:

Trip Planner

Search our weather history database for the weather conditions in past years. The results will help you decide how hot, cold, wet, or windy it might be!

Date:

Astronomy

Oct. 18, 2012 Rise Set
Actual Time 7:42 AM CDT 6:22 PM CDT
Civil Twilight 7:11 AM CDT 6:54 PM CDT
Nautical Twilight 6:35 AM CDT 7:30 PM CDT
Astronomical Twilight 5:58 AM CDT 8:06 PM CDT
Moon 11:42 AM CDT 8:40 PM CDT
Length of Visible Light 11h 42m
Length of Day
10h 39m
Waxing Crescent, 14% of the Moon is Illuminated
Oct 18
Waxing Crescent
Oct 21
First Quarter
Oct 29
Full
Nov 6
Last Quarter
Nov 13
New

Hourly Weather History & Observations

Time (CDT) Temp. Windchill Dew Point Humidity Pressure Visibility Wind Dir Wind Speed Gust Speed Precip Events Conditions
12:12 AM 46.4 °F 45.2 °F 44.6 °F 93% 29.14 in 10.0 mi SE 3.5 mph - N/A   Overcast
12:32 AM 46.4 °F - 44.6 °F 93% 29.15 in 10.0 mi Calm Calm - N/A   Overcast
12:52 AM 46.4 °F 45.2 °F 44.6 °F 93% 29.15 in 10.0 mi SE 3.5 mph - N/A   Overcast
1:32 AM 46.4 °F 44.3 °F 44.6 °F 93% 29.16 in 10.0 mi SE 4.6 mph - N/A   Overcast
1:52 AM 46.4 °F 44.3 °F 44.6 °F 93% 29.16 in 10.0 mi East 4.6 mph - N/A   Overcast
2:13 AM 46.4 °F 45.2 °F 44.6 °F 93% 29.16 in 10.0 mi East 3.5 mph - N/A   Overcast
2:32 AM 46.4 °F 45.2 °F 44.6 °F 93% 29.17 in 10.0 mi East 3.5 mph - N/A   Overcast
2:52 AM 46.4 °F 44.3 °F 44.6 °F 93% 29.17 in 10.0 mi East 4.6 mph - N/A   Overcast
3:13 AM 46.4 °F 45.2 °F 44.6 °F 93% 29.17 in 10.0 mi East 3.5 mph - N/A   Overcast
3:32 AM 46.4 °F 44.3 °F 44.6 °F 93% 29.18 in 10.0 mi East 4.6 mph - N/A   Overcast
3:52 AM 44.6 °F 43.1 °F 44.6 °F 100% 29.18 in 7.0 mi East 3.5 mph - N/A   Overcast
4:12 AM 44.6 °F 42.2 °F 44.6 °F 100% 29.18 in 7.0 mi ENE 4.6 mph - N/A   Overcast
4:32 AM 44.6 °F 41.4 °F 44.6 °F 100% 29.18 in 10.0 mi ENE 5.8 mph - N/A   Overcast
4:52 AM 44.6 °F 43.1 °F 44.6 °F 100% 29.19 in 10.0 mi East 3.5 mph - N/A   Overcast
5:12 AM 44.6 °F - 44.6 °F 100% 29.19 in 10.0 mi Calm Calm - N/A   Mostly Cloudy
5:52 AM 44.6 °F - 44.6 °F 100% 29.19 in 10.0 mi Calm Calm - N/A   Overcast
6:32 AM 44.6 °F 43.1 °F 44.6 °F 100% 29.20 in 10.0 mi North 3.5 mph - N/A   Overcast
6:52 AM 44.6 °F - 44.6 °F 100% 29.20 in 10.0 mi Calm Calm - N/A   Overcast
7:12 AM 44.6 °F - 44.6 °F 100% 29.21 in 10.0 mi Calm Calm - N/A   Overcast
7:32 AM 44.6 °F - 44.6 °F 100% 29.22 in 7.0 mi Calm Calm - N/A Rain Rain
7:52 AM 44.6 °F - 44.6 °F 100% 29.22 in 10.0 mi Calm Calm - 0.03 in Rain Rain
8:12 AM 44.6 °F 41.4 °F 44.6 °F 100% 29.21 in 10.0 mi WNW 5.8 mph - 0.02 in Rain Light Rain
8:32 AM 44.6 °F 40.7 °F 44.6 °F 100% 29.21 in 10.0 mi NW 6.9 mph - 0.04 in Rain Rain
9:12 AM 46.4 °F 42.9 °F 44.6 °F 93% 29.21 in 10.0 mi NW 6.9 mph - 0.02 in Rain Light Rain
9:33 AM 46.4 °F 41.9 °F 46.4 °F 100% 29.21 in 10.0 mi NW 9.2 mph - 0.04 in Rain Rain
9:52 AM 46.4 °F 42.4 °F 46.4 °F 100% 29.20 in 10.0 mi NW 8.1 mph - 0.06 in Rain Rain
10:12 AM 46.4 °F 41.9 °F 46.4 °F 100% 29.20 in 10.0 mi NW 9.2 mph - 0.02 in Rain Light Rain
10:32 AM 48.2 °F - 46.4 °F 93% 29.19 in 10.0 mi NNW 9.2 mph 16.1 mph 0.02 in Rain Rain
11:12 AM 50.0 °F - 48.2 °F 94% 29.19 in 7.0 mi North 9.2 mph 18.4 mph 0.01 in Rain Rain
11:32 AM 50.0 °F - 50.0 °F 100% 29.19 in 7.0 mi North 10.4 mph 19.6 mph 0.01 in Rain Light Rain
11:52 AM 51.8 °F - 50.0 °F 94% 29.20 in 5.0 mi North 10.4 mph 16.1 mph 0.02 in Rain Light Rain
12:12 PM 51.8 °F - 51.8 °F 100% 29.20 in 10.0 mi North 10.4 mph 17.3 mph 0.01 in Rain Light Rain
12:33 PM 51.8 °F - 51.8 °F 100% 29.20 in 7.0 mi North 9.2 mph 17.3 mph 0.02 in Rain Light Rain
12:52 PM 51.8 °F - 51.8 °F 100% 29.20 in 7.0 mi North 10.4 mph 18.4 mph 0.02 in Rain Light Rain
1:12 PM 51.8 °F - 51.8 °F 100% 29.20 in 5.0 mi North 11.5 mph - 0.01 in Rain Light Rain
1:33 PM 51.8 °F - 51.8 °F 100% 29.21 in 7.0 mi North 9.2 mph 18.4 mph 0.01 in Rain Light Rain
1:52 PM 51.8 °F - 51.8 °F 100% 29.21 in 7.0 mi North 10.4 mph 16.1 mph 0.04 in Rain Rain
2:12 PM 51.8 °F - 51.8 °F 100% 29.22 in 7.0 mi North 9.2 mph 16.1 mph 0.02 in Rain Rain
2:32 PM 51.8 °F - 51.8 °F 100% 29.22 in 5.0 mi North 9.2 mph 16.1 mph 0.04 in Rain Light Rain
2:52 PM 51.8 °F - 51.8 °F 100% 29.23 in 7.0 mi North 9.2 mph 19.6 mph 0.07 in Rain Rain
3:12 PM 53.6 °F - 51.8 °F 94% 29.24 in 10.0 mi North 9.2 mph - 0.02 in Rain Rain
3:32 PM 53.6 °F - 51.8 °F 94% 29.25 in 7.0 mi North 11.5 mph - 0.05 in Rain Light Rain
3:52 PM 53.6 °F - 51.8 °F 94% 29.25 in 5.0 mi North 11.5 mph 16.1 mph 0.06 in Rain Rain
4:12 PM 53.6 °F - 51.8 °F 94% 29.27 in 4.0 mi North 9.2 mph 19.6 mph 0.01 in   Drizzle
4:32 PM 53.6 °F - 51.8 °F 94% 29.28 in 4.0 mi North 11.5 mph 18.4 mph 0.01 in   Drizzle
4:52 PM 53.6 °F - 51.8 °F 94% 29.29 in 4.0 mi North 11.5 mph 18.4 mph 0.01 in Rain Rain
5:12 PM 53.6 °F - 51.8 °F 94% 29.30 in 4.0 mi North 11.5 mph 16.1 mph N/A   Drizzle
5:32 PM 53.6 °F - 51.8 °F 94% 29.32 in 4.0 mi North 9.2 mph - 0.01 in   Drizzle
5:52 PM 53.6 °F - 51.8 °F 94% 29.33 in 4.0 mi North 9.2 mph 19.6 mph 0.01 in   Drizzle
6:12 PM 53.6 °F - 51.8 °F 94% 29.34 in 4.0 mi NNE 9.2 mph 18.4 mph 0.01 in   Drizzle
6:52 PM 53.6 °F - 51.8 °F 94% 29.36 in 7.0 mi North 10.4 mph 21.9 mph 0.02 in   Drizzle
7:12 PM 53.6 °F - 51.8 °F 94% 29.38 in 5.0 mi North 11.5 mph 17.3 mph 0.01 in   Drizzle
7:32 PM 53.6 °F - 51.8 °F 94% 29.39 in 10.0 mi North 11.5 mph 17.3 mph 0.01 in   Light Drizzle
7:52 PM 53.6 °F - 51.8 °F 94% 29.39 in 10.0 mi North 11.5 mph - 0.01 in   Overcast
8:12 PM 53.6 °F - 51.8 °F 94% 29.40 in 10.0 mi North 8.1 mph - N/A Rain Rain
8:32 PM 51.8 °F - 51.8 °F 100% 29.41 in 10.0 mi North 10.4 mph 17.3 mph N/A   Overcast
8:52 PM 51.8 °F - 51.8 °F 100% 29.42 in 10.0 mi North 9.2 mph 18.4 mph N/A   Overcast
9:13 PM 51.8 °F - 51.8 °F 100% 29.42 in 10.0 mi North 11.5 mph 16.1 mph N/A   Overcast
9:32 PM 51.8 °F - 51.8 °F 100% 29.43 in 10.0 mi North 9.2 mph 17.3 mph N/A   Overcast
9:52 PM 51.8 °F - 51.8 °F 100% 29.44 in 10.0 mi North 10.4 mph - N/A   Overcast
10:13 PM 51.8 °F - 51.8 °F 100% 29.46 in 10.0 mi North 13.8 mph 19.6 mph N/A   Overcast
10:52 PM 50.0 °F - 50.0 °F 100% 29.47 in 10.0 mi North 13.8 mph 19.6 mph N/A   Overcast
11:32 PM 50.0 °F - 48.2 °F 94% 29.49 in 10.0 mi North 12.7 mph 19.6 mph N/A   Overcast